K9JM Weather Reports


time (UTC)temp
F
wind
direction
speed
knots
gust
knots
rain 1hr
in
rain 24hr
in
rain mn
in
humidity
%
barometer
mb
20260831210016 80 135 0.9 5.2 0.00 0.00 0.00 37 1012.9
20260831204516 80 180 0.9 4.3 0.00 0.00 0.00 35 1012.9
20260831203016 80 225 0.9 4.3 0.00 0.00 0.00 38 1013.0
20260831201536 81 203 0.9 4.3 0.00 0.00 0.00 37 1013.2
20260831200016 81 270 0.9 3.5 0.00 0.00 0.00 40 1013.0
20260831194516 80 270 0.9 2.6 0.00 0.00 0.00 40 1013.2
20260831193016 80 270 0.9 3.5 0.00 0.00 0.00 40 1013.3
20260831191516 81 0.0 2.6 0.00 0.00 0.00 39 1013.3
20260831190016 82 0.0 2.6 0.00 0.00 0.00 36 1013.3
20260831184516 83 203 0.9 3.5 0.00 0.00 0.00 34 1013.4
20260831183016 82 158 0.9 4.3 0.00 0.00 0.00 36 1013.2
20260831181516 81 203 0.9 4.3 0.00 0.00 0.00 35 1013.1
20260831180016 82 113 0.9 4.3 0.00 0.00 0.00 35 1013.2
20260831174516 80 113 1.7 4.3 0.00 0.00 0.00 37 1013.4
20260831173016 80 135 0.9 3.5 0.00 0.00 0.00 37 1013.3
20260831171536 80 113 0.9 4.3 0.00 0.00 0.00 38 1013.6
20260831170016 78 113 0.9 3.5 0.00 0.00 0.00 38 1013.3
20260831164536 78 90 0.9 3.5 0.00 0.00 0.00 39 1013.3
20260831163015 76 45 0.9 3.5 0.00 0.00 0.00 39 1013.1
20260831161536 74 68 0.9 3.5 0.00 0.00 0.00 42 1012.9
20260831160016 73 68 0.9 3.5 0.00 0.00 0.00 44 1012.8
20260831154515 71 45 0.9 2.6 0.00 0.00 0.00 45 1012.7
20260831153015 71 68 0.9 3.5 0.00 0.00 0.00 44 1012.6
20260831151515 70 68 0.9 1.7 0.00 0.00 0.00 46 1012.8
20260831150015 70 0.0 0.9 0.00 0.00 0.00 47 1012.7
20260831144516 68 0.0 0.0 0.00 0.00 0.00 48 1012.6
20260831143015 67 0.0 1.7 0.00 0.00 0.00 49 1012.4
20260831141515 67 0.0 0.9 0.00 0.00 0.00 47 1012.3
20260831140016 67 0.0 0.9 0.00 0.00 0.00 47 1012.0
20260831134516 66 0.0 3.5 0.00 0.00 0.00 47 1011.8
20260831133016 66 0.0 0.0 0.00 0.00 0.00 48 1011.8
20260831131516 66 0.0 1.7 0.00 0.00 0.00 47 1011.9
20260831130015 66 0.0 0.9 0.00 0.00 0.00 48 1011.8
20260831124515 65 0.0 1.7 0.00 0.00 0.00 48 1011.7
20260831123016 65 0.0 1.7 0.00 0.00 0.00 49 1011.7
20260831121516 65 0.0 0.0 0.00 0.00 0.00 49 1011.9
20260831120015 65 0.0 0.0 0.00 0.00 0.00 48 1012.0
20260831114516 66 0.0 0.0 0.00 0.00 0.00 47 1011.9
20260831113015 66 0.0 0.0 0.00 0.00 0.00 46 1012.1
20260831111516 66 0.0 0.0 0.00 0.00 0.00 46 1012.2
20260831110016 66 0.0 0.0 0.00 0.00 0.00 47 1012.2
20260831104516 66 0.0 0.0 0.00 0.00 0.00 47 1012.4
20260831103015 66 0.0 0.0 0.00 0.00 0.00 48 1012.4
20260831101515 66 0.0 0.0 0.00 0.00 0.00 47 1012.2
20260831100016 66 0.0 0.0 0.00 0.00 0.00 47 1012.3
20260831094515 66 0.0 0.0 0.00 0.00 0.00 46 1012.3
20260831093015 66 0.0 0.0 0.00 0.00 0.00 47 1012.4
20260831091515 66 0.0 0.0 0.00 0.00 0.00 48 1012.5
20260831090015 66 0.0 0.0 0.00 0.00 0.00 48 1012.6
20260831084515 67 0.0 0.0 0.00 0.00 0.00 47 1012.5
20260831083015 67 0.0 0.0 0.00 0.00 0.00 47 1012.5
20260831081515 67 0.0 0.9 0.00 0.00 0.00 47 1012.6
20260831080015 67 0.0 0.9 0.00 0.00 0.00 47 1012.6
20260831074535 68 0.0 1.7 0.00 0.00 0.00 46 1012.8
20260831073015 68 0.0 0.0 0.00 0.00 0.00 45 1012.8
20260831071517 68 0.0 0.0 0.00 0.00 0.00 46 1012.9
20260831070017 68 0.0 0.9 0.00 0.00 0.00 45 1012.8
20260831064537 69 0.0 0.9 0.00 0.00 0.00 45 1012.8
20260831063016 69 0.0 0.9 0.00 0.00 0.00 45 1012.9
20260831061516 69 0.0 2.6 0.00 0.00 0.00 45 1013.1
20260831060017 70 0.0 0.9 0.00 0.00 0.00 44 1013.1
20260831054536 70 0.0 2.6 0.00 0.00 0.00 44 1013.2
20260831053016 71 0.0 2.6 0.00 0.00 0.00 43 1013.0
20260831051516 71 0.0 2.6 0.00 0.00 0.00 41 1013.2
20260831050016 72 0.0 0.0 0.00 0.00 0.00 40 1013.3
20260831044536 73 0.0 0.9 0.00 0.00 0.00 39 1013.0
20260831043016 73 0.0 0.0 0.00 0.00 0.00 38 1013.2
20260831041516 74 0.0 0.0 0.00 0.00 0.00 38 1013.2
20260831040016 74 0.0 0.0 0.00 0.00 0.00 38 1012.8
20260831034516 74 0.0 0.0 0.00 0.00 0.00 39 1012.8
20260831033016 75 0.0 0.0 0.00 0.00 0.00 40 1012.8
20260831031516 75 0.0 0.0 0.00 0.00 0.00 38 1012.6
20260831030016 76 0.0 0.0 0.00 0.00 0.00 36 1012.5
20260831024516 77 0.0 0.0 0.00 0.00 0.00 33 1012.0
20260831023016 78 0.0 0.0 0.00 0.00 0.00 32 1012.2
20260831021516 79 0.0 0.0 0.00 0.00 0.00 31 1012.0
20260831020016 80 0.0 0.0 0.00 0.00 0.00 30 1012.2
20260831014516 80 0.0 0.9 0.00 0.00 0.00 29 1012.0
20260831013016 81 0.0 0.9 0.00 0.00 0.00 28 1012.2
20260831011536 82 0.0 0.0 0.00 0.00 0.00 28 1012.4
20260831010016 82 0.0 1.7 0.00 0.00 0.00 28 1012.5
20260831004536 81 113 0.9 3.5 0.00 0.00 0.00 28 1012.5
20260831003016 82 113 0.9 6.1 0.00 0.00 0.00 27 1012.7
20260831001536 83 0.0 3.5 0.00 0.00 0.00 27 1012.7
20260831000016 83 0.0 1.7 0.00 0.00 0.00 27 1012.7
20260830234536 83 135 0.9 3.5 0.00 0.00 0.00 27 1012.7
20260830233016 84 158 0.9 2.6 0.00 0.00 0.00 27 1013.0
20260830231516 84 135 0.9 5.2 0.00 0.00 0.00 27 1013.3
20260830230016 85 0.0 2.6 0.00 0.00 0.00 27 1013.3
20260830224516 85 113 0.9 3.5 0.00 0.00 0.00 27 1013.4
20260830223016 85 225 0.9 3.5 0.00 0.00 0.00 26 1013.5
20260830221516 84 203 1.7 7.8 0.00 0.00 0.00 27 1013.6
20260830220016 85 135 0.9 6.1 0.00 0.00 0.00 26 1013.8
20260830214516 86 203 0.9 4.3 0.00 0.00 0.00 25 1014.0
20260830213016 85 270 0.9 5.2 0.00 0.00 0.00 24 1014.1
20260830211516 85 158 0.9 5.2 0.00 0.00 0.00 26 1014.2